Location: Newark
(41.3147°N, 3.1384°W)
Time: 14:46:48
(UTC+00:00)

N. Korean satellite - Visible Passes

Search period start: 22 October 2019 00:00
Search period end: 01 November 2019 00:00
Orbit: 455 x 508 km, 97.2° (Epoch: 21 October)

Date Brightness Start Highest point End Pass type
(mag) Time Alt. Az. Time Alt. Az. Time Alt. Az.
22 Oct 9.0 05:33:27 10° NE 05:36:39 28° E 05:39:52 10° SSE visible
22 Oct 8.0 17:41:58 10° S 17:45:14 42° W 17:48:32 10° NNW visible
23 Oct 10.2 05:09:08 10° ENE 05:11:12 14° E 05:13:16 10° SE visible
24 Oct 10.2 18:26:49 10° WSW 18:28:14 12° W 18:29:39 10° WNW visible
25 Oct 7.8 05:50:37 10° NNE 05:54:10 48° E 05:57:45 10° S visible
25 Oct 9.2 17:59:51 10° SSW 18:02:43 25° W 18:05:39 10° NW visible
26 Oct 9.4 05:25:47 10° NE 05:28:46 23° E 05:31:46 10° SSE visible
27 Oct 10.4 05:01:54 10° ENE 05:03:17 12° E 05:04:40 10° ESE visible
28 Oct 6.7 06:07:55 10° NNE 06:11:37 85° E 06:15:20 10° S visible
28 Oct 10.0 18:18:10 10° SW 18:20:15 15° W 18:22:23 10° NW visible
29 Oct 8.3 05:42:47 10° NNE 05:46:16 38° E 05:49:45 10° SSE visible
29 Oct 8.7 17:51:40 10° SSW 17:54:46 31° W 17:57:56 10° NNW visible
30 Oct 9.7 05:18:07 10° NE 05:20:50 19° E 05:23:33 10° SE visible
